Вернуться в каталог

STARLINK-5747

АктивенСвязьVLEO
NORAD 55574·PAYLOAD·🇺🇸 United States

Запущен Feb 12, 2023 с Cape Canaveral Space Force Station

Loading…

Ближайшие Пролёты (ближайшие 24 часа)

TLE

СвежийSource: CelesTrak SupGP

Эпоха: Sep 14, 2026, 20:52 UTC

1 55574C 23020F   26257.86993056  .00025885  00000+0  93729-3 0  2578
2 55574  43.0022  20.5810 0001717 271.7147   2.1958 15.27574331    14

Отслеживайте STARLINK-5747 в реальном времени с AllMySat

Download on the App Store